Observations for Trim Patrick St
| Time | AQI | Temp °C | Hum % | Pres Pa | CO μg/m³ | H₂S μg/m³ | NO μg/m³ | NO₂ μg/m³ | O₃ μg/m³ | SO₂ μg/m³ | PM1 μg/m³ | PM2.5 μg/m³ | PM10 μg/m³ |
|---|---|---|---|---|---|---|---|---|---|---|---|---|---|
| Thursday 6 August 2026 | |||||||||||||
| 05:40 | 2 | 12.2 | 79 | 38,460 | 0.36 | 1.92 | 3.73 | 18.32 | 46.6 | 0 | 2.86 | 5.97 | 6.56 |
| 05:39 | 2 | 12.1 | 79 | 38,460 | 0.37 | 1.48 | 3.82 | 14.8 | 36.97 | 0 | 2.86 | 5.98 | 6.58 |
| 05:38 | 2 | 12.1 | 79 | 38,460 | 0.37 | 2.23 | 3.81 | 18.03 | 51.34 | 0 | 2.86 | 5.99 | 6.59 |
| 05:37 | 2 | 12.1 | 78 | 38,460 | 0.37 | 2.02 | 3.8 | 16.24 | 42.52 | 0 | 2 | 4.62 | 5.08 |
| 05:36 | 2 | 12.1 | 79 | 38,460 | 0.37 | 1.33 | 3.79 | 14.53 | 32.09 | 0 | 2.86 | 5.31 | 5.84 |
| 05:35 | 2 | 12.1 | 78 | 38,460 | 0.37 | 2.13 | 3.91 | 16.24 | 46.43 | 0 | 2.86 | 6.02 | 6.62 |
| 05:34 | 2 | 12.1 | 78 | 38,460 | 0.38 | 1.84 | 3.82 | 15.31 | 35.47 | 0 | 2.86 | 6.04 | 6.64 |
| 05:33 | 2 | 12.1 | 78 | 38,460 | 0.38 | 1.71 | 3.82 | 14.88 | 39.2 | 0 | 2 | 5.34 | 5.87 |
| 05:32 | 2 | 12.1 | 79 | 38,460 | 0.37 | 1.61 | 3.79 | 14.77 | 36.34 | 0 | 2 | 5.29 | 5.82 |
| 05:31 | 2 | 12 | 79 | 38,460 | 0.36 | 1.94 | 3.85 | 16.83 | 46.16 | 0 | 2.86 | 6.01 | 6.61 |
| 05:30 | 2 | 12 | 79 | 38,460 | 0.36 | 1.5 | 3.74 | 16.87 | 42.82 | 0 | 2.86 | 6 | 6.59 |
| 05:29 | 2 | 12 | 79 | 38,460 | 0.33 | 1.66 | 3.71 | 15.91 | 40.87 | 0 | 2.86 | 6.7 | 7.37 |
| 05:28 | 2 | 12 | 78 | 38,460 | 0.35 | 1.53 | 3.76 | 15.59 | 36.82 | 0 | 2.86 | 6.05 | 6.65 |
| 05:27 | 2 | 12 | 79 | 38,460 | 0.34 | 1.32 | 3.74 | 13.6 | 31.59 | 0 | 2 | 5.31 | 5.84 |
| 05:26 | 2 | 12 | 79 | 38,460 | 0.34 | 1.66 | 3.61 | 15.5 | 41.23 | 0 | 2 | 5.99 | 6.59 |
| 05:25 | 2 | 12 | 79 | 38,460 | 0.33 | 1.63 | 3.72 | 14.22 | 34.28 | 0 | 3.71 | 6.7 | 7.37 |
| 05:24 | 2 | 11.9 | 78 | 38,460 | 0.33 | 2.33 | 3.73 | 17.08 | 45.64 | 0 | 3.71 | 6.74 | 7.41 |
| 05:22 | 2 | 11.9 | 79 | 38,460 | 0.32 | 2.66 | 3.8 | 15.99 | 45.69 | 0 | 3.71 | 6.7 | 7.37 |
| 05:21 | 2 | 11.9 | 78 | 38,460 | 0.32 | 2.07 | 3.92 | 13.58 | 36.47 | 0 | 2 | 5.37 | 5.91 |
| 05:20 | 2 | 11.9 | 78 | 38,460 | 0.31 | 2.41 | 3.79 | 16.42 | 46.97 | 0 | 2.86 | 6.02 | 6.62 |